Regional Weather Roundup
Issued by NWS Midland/Odessa, TX

Skip options and go directly to product.
Home | Oldest Version | Previous Version | Current Version | All | Text Only | Save Text | Print | Product List | Glossary On

Skip product version selection by date and time.   
696
ASUS44 KMAF 280310
RWRMAF
MIDLAND AREA WEATHER ROUNDUP
NATIONAL WEATHER SERVICE MIDLAND TX
1000 PM CDT MON JUL 27 2015

...IN SOUTHWEST TEXAS AND SOUTHEAST NEW MEXICO...

CITY           SKY/WX    TMP DP  RH WIND       PRES   REMARKS
ALPINE         CLOUDY    74  60  60 S6        30.11R
ANDREWS        FAIR      90  54  29 S7        29.94R
ARTESIA        MOCLDY    88  59  37 S12G17    29.94R
BIG SPRING     CLEAR     90  58  33 E13       29.94R
CARLSBAD       MOCLDY    87  58  37 SW12      29.91R
DRYDEN           N/A     92  61  35 E7        29.89R
FORT STOCKTON  LGT RAIN  89  57  33 SE14      29.94R
GUAD PASS      MOCLDY    80  52  37 CALM      30.12R
HOBBS          CLOUDY    82  61  47 CALM      29.98R
MARFA          CLOUDY    73  61  64 SE5       30.10R
MIDLAND AIRPK  CLEAR     94  52  23 SE9       29.93R
MIDLAND INTL   CLEAR     91  55  29 S9        29.92R
ODESSA         CLEAR     93  53  25 S12       29.93R
PECOS          PTCLDY    86  56  35 E8        29.88R
PRESIDIO       LGT RAIN  85  58  40 MISG      29.93R
SEMINOLE       PTCLDY    87  53  30 SE6       29.96R
SNYDER         CLEAR     86  64  47 SE8       29.93R
WINK           MOCLDY    89  58  34 SE9       29.89R
$$
...OTHER STATIONS IN TEXAS...

CITY           SKY/WX    TMP DP  RH WIND       PRES   REMARKS
ABILENE        CLEAR     87  65  47 SE14      29.91R
AMARILLO       CLEAR     84  60  44 S15       29.96R
AUSTIN         CLEAR     85  70  60 S9        29.91R
BROWNSVILLE    CLEAR     83  77  82 SE13      29.89R
CORPUS CHRISTI PTCLDY    83  77  82 SE15      29.90R
DALLAS FTW     CLEAR     90  65  43 SE9       29.89R
DEL RIO        CLEAR     92  61  35 E9        29.83R
EL PASO        CLOUDY    85  55  35 SE13      29.98R
HOUSTON INT    PTCLDY    86  73  65 S9        29.93R
LUBBOCK        PTCLDY    86  62  44 SE13      29.95R
SAN ANGELO     PTCLDY    92  62  36 SE10      29.89R
SAN ANTONIO    PTCLDY    86  69  56 S15       29.92R
WACO           CLEAR     89  66  46 SE9       29.90R
WICHITA FALLS  NOT AVBL
$$
...OTHER LOCATIONS IN NEW MEXICO...

CITY           SKY/WX    TMP DP  RH WIND       PRES   REMARKS
ALAMAGORDO     MOCLDY    88  50  27 W3        29.97R
ALBUQUERQUE    CLOUDY    86  49  27 S9        30.05R
CANNON AFB     MOCLDY    83  59  43 W12       30.01R THUNDER
CLOVIS         MOCLDY    82  55  39 SE12      30.01R
HOLLOMAN AFB   MOCLDY    91  50  24 W5        29.94R
ROSWELL        MOCLDY    90  53  28 S10       29.93R
RUIDOSO          N/A    N/A N/A N/A MISG        N/A
SANTA FE       MOCLDY    78  47  33 SW5       30.12R
TRUTH OR CONSE MOCLDY    85  53  33 CALM      30.01R
TUCUMCARI      MOCLDY    86  53  32 S13       29.93R
$$

USA.gov is the U.S. government's official web portal to all federal, state and local government web resources and services.